CW8490 Weather Reports


Display with metric or nautical units.
time (UTC)temp
F
wind
direction
speed
MPH
gust
MPH
rain 1hr
in
rain 24hr
in
rain mn
in
humidity
%
barometer
mb
20260504173816 76 225 2.0 6.0 0.00 0.00 0.00 59 1002.9
20260504172816 76 225 7.0 16.0 0.00 0.00 0.00 57 1002.9
20260504171816 76 203 6.0 15.0 0.00 0.00 0.00 56 1002.9
20260504170816 76 270 6.0 9.0 0.00 0.00 0.00 57 1002.9
20260504150217 70 270 5.0 10.0 0.00 0.00 0.00 61 1003.4
20260504140816 68 270 2.0 4.0 0.00 0.00 0.00 63 1003.6
20260504100137 65 225 4.0 7.0 0.00 0.00 0.00 61 1004.7
20260504090117 63 225 4.0 11.0 0.00 0.00 0.00 65 1004.9
20260504081717 62 225 4.0 6.0 0.00 0.00 0.00 68 1005.2
20260504080717 62 203 3.0 4.0 0.00 0.00 0.00 68 1005.4
20260504060137 61 113 1.0 2.0 0.00 0.00 0.00 77 1007.1
20260504050317 63 0 2.0 2.0 0.00 0.00 0.00 75 1007.3
20260504045408 64 0.0 0.0 0.00 0.00 0.00 73 1007.2
20260504045216 64 135 1.0 1.0 0.00 0.00 0.00 73 1007.1
20260504044216 65 0.0 0.0 0.00 0.00 0.00 71 1007.1
20260504043216 65 0.0 1.0 0.00 0.00 0.00 71 1007.0
20260504042216 65 0.0 0.0 0.00 0.00 0.00 71 1007.1
20260504041216 66 0.0 0.0 0.00 0.00 0.00 69 1007.1
20260504040236 66 0.0 1.0 0.00 0.00 0.00 69 1007.2
20260504035216 66 0.0 1.0 0.00 0.00 0.00 69 1007.5
20260504034216 65 293 4.0 5.0 0.00 0.00 0.00 73 1007.5
20260504033216 63 225 2.0 4.0 0.00 0.00 0.00 76 1007.5
20260504032216 61 0.0 0.0 0.00 0.00 0.00 77 1007.5
20260504031216 62 0.0 0.0 0.00 0.00 0.00 77 1007.5
20260504030216 63 0.0 0.0 0.00 0.00 0.00 76 1007.5
20260504025216 64 0.0 0.0 0.00 0.00 0.00 74 1007.5
20260504024216 65 0.0 0.0 0.00 0.00 0.00 72 1007.5
20260504023216 65 0.0 1.0 0.00 0.00 0.00 72 1007.4
20260504022216 66 0.0 0.0 0.00 0.00 0.00 70 1007.5
20260504021258 67 0.0 0.0 0.00 0.00 0.00 69 1007.4
20260504020218 68 158 1.0 1.0 0.00 0.00 0.00 67 1007.4
20260504015216 69 0.0 0.0 0.00 0.00 0.00 65 1007.4
20260504014216 70 0.0 0.0 0.00 0.00 0.00 62 1007.4
20260504013216 71 0.0 0.0 0.00 0.00 0.00 58 1007.4
20260504012216 72 0.0 0.0 0.00 0.00 0.00 56 1007.4
20260504011216 73 0.0 1.0 0.00 0.00 0.00 55 1007.3
20260504010216 74 158 1.0 2.0 0.00 0.00 0.00 54 1007.4
20260504005216 75 225 1.0 2.0 0.00 0.00 0.00 52 1007.5
20260504004216 75 203 1.0 2.0 0.00 0.00 0.00 51 1007.5
20260504003217 76 180 1.0 4.0 0.00 0.00 0.00 47 1007.4
20260504002216 77 225 1.0 3.0 0.00 0.00 0.00 44 1007.4
20260504001216 78 248 1.0 3.0 0.00 0.00 0.00 40 1007.6
20260504000219 79 248 2.0 5.0 0.00 0.00 0.00 37 1007.6
20260503235216 80 248 2.0 3.0 0.00 0.00 0.00 36 1007.5
20260503234216 81 293 5.0 8.0 0.00 0.00 0.00 34 1007.8
20260503233216 81 248 3.0 5.0 0.00 0.00 0.00 36 1007.8
20260503232217 82 293 4.0 9.0 0.00 0.00 0.00 34 1007.7
20260503231216 82 293 5.0 9.0 0.00 0.00 0.00 31 1007.8
20260503230216 82 293 6.0 14.0 0.00 0.00 0.00 35 1007.8
20260503225236 82 248 5.0 10.0 0.00 0.00 0.00 38 1007.9
20260503224216 82 270 7.0 12.0 0.00 0.00 0.00 37 1008.0
20260503223236 82 270 4.0 8.0 0.00 0.00 0.00 39 1008.1
20260503222216 82 293 5.0 8.0 0.00 0.00 0.00 38 1008.2
20260503221216 82 248 5.0 10.0 0.00 0.00 0.00 41 1008.3
20260503220216 82 225 4.0 6.0 0.00 0.00 0.00 46 1008.4
20260503215216 82 248 6.0 11.0 0.00 0.00 0.00 45 1008.5
20260503214217 81 270 5.0 7.0 0.00 0.00 0.00 45 1008.6
20260503213216 81 293 4.0 8.0 0.00 0.00 0.00 45 1008.8
20260503212216 81 248 6.0 8.0 0.00 0.00 0.00 45 1008.8
20260503211311 81 90 4.0 4.0 0.00 0.00 0.00 47 1009.0
20260503210817 81 225 5.0 11.0 0.00 0.00 0.00 45 1009.1
20260503205817 80 225 2.0 4.0 0.00 0.00 0.00 46 1009.2
20260503204816 80 270 4.0 6.0 0.00 0.00 0.00 49 1009.4
20260503203816 79 293 5.0 7.0 0.00 0.00 0.00 48 1009.5
20260503202837 79 293 6.0 10.0 0.00 0.00 0.00 46 1009.7
20260503201816 79 293 6.0 10.0 0.00 0.00 0.00 46 1009.9
20260503200817 78 293 3.0 6.0 0.00 0.00 0.00 47 1010.0
20260503195817 78 293 4.0 7.0 0.00 0.00 0.00 50 1010.1
20260503194817 78 293 6.0 9.0 0.00 0.00 0.00 47 1010.2
20260503193817 78 270 7.0 11.0 0.00 0.00 0.00 47 1010.4
20260503192837 78 293 4.0 7.0 0.00 0.00 0.00 50 1010.4
20260503191816 77 270 4.0 6.0 0.00 0.00 0.00 50 1010.5
20260503190817 77 270 6.0 11.0 0.00 0.00 0.00 47 1010.8
20260503185817 77 270 5.0 10.0 0.00 0.00 0.00 48 1010.8
20260503184857 76 270 3.0 5.0 0.00 0.00 0.00 52 1011.0
20260503183817 76 293 8.0 14.0 0.00 0.00 0.00 50 1011.1
20260503182817 76 293 7.0 9.0 0.00 0.00 0.00 51 1011.0
20260503181817 76 270 8.0 12.0 0.00 0.00 0.00 51 1011.2
20260503180817 76 293 7.0 10.0 0.00 0.00 0.00 51 1011.3
20260503175817 75 248 3.0 5.0 0.00 0.00 0.00 55 1011.5
20260503174837 74 203 7.0 14.0 0.00 0.00 0.00 55 1011.7